Location: D�rnast
(49.6426°N, 11.9755°E)
Time: 20:08:37
(UTC+00:00)

Cosmos 1602 Rocket - Pass Details

Date: 24 January 2021
Orbit: 604 x 632 km, 82.5° (Epoch: 02 March)

Event Time Altitude Azimuth Distance (km) Brightness Sun altitude
Rises 17:57:04 0° 192° (SSW) 2,856 7.2 -19.6°
Reaches altitude 10° 17:59:16 10° 194° (SSW) 1,961 6.4 -20.0°
Maximum altitude 18:03:37 76° 280° (W) 639 3.6 -20.7°
Drops below altitude 10° 18:08:02 10° 7° (N) 1,994 6.0 -21.4°
Enters shadow 18:08:31 - 8° (N) 2,191 6.2 -21.4°
